| time (UTC) | temp C | wind direction | speed KPH | gust KPH | rain 1hr cm | rain 24hr cm | rain mn cm | humidity % | barometer mb |
| 20260505183100 | 26 | 255 | 3.2 | 12.9 | 0.00 | 0.00 | 0.00 | 41 | 1016.1 |
| 20260505181601 | 26 | 156 | 4.8 | 11.3 | 0.00 | 0.00 | 0.00 | 38 | 1016.7 |
| 20260505180104 | 26 | 0 | 3.2 | 12.9 | 0.00 | 0.00 | 0.00 | 38 | 1017.1 |
| 20260505174613 | 26 | 54 | 3.2 | 14.5 | 0.00 | 0.00 | 0.00 | 42 | 1017.3 |
| 20260505173108 | 25 | 0 | 1.6 | 9.7 | 0.00 | 0.00 | 0.00 | 43 | 1017.3 |
| 20260505171608 | 26 | 243 | 1.6 | 14.5 | 0.00 | 0.00 | 0.00 | 43 | 1017.0 |
| 20260505170139 | 25 | 196 | 1.6 | 9.7 | 0.00 | 0.00 | 0.00 | 43 | 1017.2 |
| 20260505164609 | 24 | 240 | 3.2 | 12.9 | 0.00 | 0.00 | 0.00 | 44 | 1017.3 |
| 20260505163109 | 25 | 232 | 1.6 | 11.3 | 0.00 | 0.00 | 0.00 | 48 | 1017.2 |
| 20260505161612 | 24 | 220 | 3.2 | 14.5 | 0.00 | 0.00 | 0.00 | 50 | 1017.4 |
| 20260505160113 | 24 | 203 | 0.0 | 11.3 | 0.00 | 0.00 | 0.00 | 54 | 1017.5 |
| 20260505153107 | 23 | 141 | 1.6 | 9.7 | 0.00 | 0.00 | 0.00 | 54 | 1017.7 |
| 20260505151559 | 22 | 221 | 3.2 | 8.0 | 0.00 | 0.00 | 0.00 | 58 | 1018.0 |
| 20260505124559 | 16 | 234 | 1.6 | 12.9 | 0.00 | 0.00 | 0.00 | 78 | 1017.5 |
| 20260505123115 | 16 | 202 | 1.6 | 8.0 | 0.00 | 0.00 | 0.00 | 78 | 1017.3 |
| 20260505120105 | 13 | 0 | 0.0 | 1.6 | 0.00 | 0.00 | 0.00 | 83 | 1017.0 |
| 20260505114615 | 12 | 0 | 0.0 | 1.6 | 0.00 | 0.00 | 0.00 | 85 | 1016.8 |
| 20260505113105 | 12 | 0 | 0.0 | 3.2 | 0.00 | 0.00 | 0.00 | 86 | 1017.0 |
| 20260505111608 | 11 | 0 | 0.0 | 1.6 | 0.00 | 0.00 | 0.00 | 86 | 1016.7 |
| 20260505101557 | 11 | 0 | 0.0 | 3.2 | 0.00 | 0.00 | 0.00 | 85 | 1016.5 |
| 20260505100058 | 11 | 0 | 0.0 | 1.6 | 0.00 | 0.00 | 0.00 | 85 | 1016.5 |
| 20260505094600 | 11 | 0 | 0.0 | 1.6 | 0.00 | 0.00 | 0.00 | 84 | 1016.4 |
| 20260505093059 | 11 | 0 | 0.0 | 0.0 | 0.00 | 0.00 | 0.00 | 82 | 1016.5 |
| 20260505091558 | 11 | 0 | 0.0 | 3.2 | 0.00 | 0.00 | 0.00 | 82 | 1016.3 |
| 20260505090100 | 12 | 0 | 0.0 | 3.2 | 0.00 | 0.00 | 0.00 | 80 | 1016.3 |
| 20260505084601 | 12 | 182 | 0.0 | 4.8 | 0.00 | 0.00 | 0.00 | 80 | 1016.3 |
| 20260505083118 | 12 | 210 | 0.0 | 1.6 | 0.00 | 0.00 | 0.00 | 79 | 1016.0 |
| 20260505081604 | 12 | 0 | 0.0 | 4.8 | 0.00 | 0.00 | 0.00 | 77 | 1016.1 |
| 20260505074556 | 12 | 156 | 1.6 | 8.0 | 0.00 | 0.00 | 0.00 | 75 | 1015.9 |
| 20260505073107 | 13 | 232 | 0.0 | 3.2 | 0.00 | 0.00 | 0.00 | 74 | 1015.9 |
| 20260505071605 | 13 | 180 | 0.0 | 4.8 | 0.00 | 0.00 | 0.00 | 72 | 1015.9 |
| 20260505070057 | 13 | 178 | 0.0 | 3.2 | 0.00 | 0.00 | 0.00 | 72 | 1015.9 |
| 20260505064605 | 13 | 157 | 0.0 | 6.4 | 0.00 | 0.00 | 0.00 | 71 | 1015.9 |
| 20260505063058 | 13 | 0 | 1.6 | 4.8 | 0.00 | 0.00 | 0.00 | 70 | 1015.8 |
| 20260505061604 | 13 | 142 | 1.6 | 4.8 | 0.00 | 0.00 | 0.00 | 68 | 1015.8 |
| 20260505060104 | 13 | 170 | 0.0 | 6.4 | 0.00 | 0.00 | 0.00 | 68 | 1015.9 |
| 20260505054606 | 13 | 157 | 0.0 | 3.2 | 0.00 | 0.00 | 0.00 | 69 | 1015.9 |
| 20260505053112 | 14 | 0 | 0.0 | 1.6 | 0.00 | 0.00 | 0.00 | 64 | 1016.0 |
| 20260505051558 | 14 | 0 | 0.0 | 1.6 | 0.00 | 0.00 | 0.00 | 65 | 1016.1 |
| 20260505041614 | 16 | 165 | 0.0 | 4.8 | 0.00 | 0.00 | 0.00 | 60 | 1016.2 |
| 20260505040100 | 16 | 207 | 0.0 | 3.2 | 0.00 | 0.00 | 0.00 | 58 | 1016.2 |
| 20260505034601 | 16 | 221 | 0.0 | 3.2 | 0.00 | 0.00 | 0.00 | 58 | 1016.3 |
| 20260505033100 | 16 | 0 | 0.0 | 4.8 | 0.00 | 0.00 | 0.00 | 57 | 1016.3 |
| 20260505031608 | 16 | 0 | 0.0 | 3.2 | 0.00 | 0.00 | 0.00 | 57 | 1016.2 |
| 20260505024603 | 17 | 189 | 0.0 | 9.7 | 0.00 | 0.00 | 0.00 | 55 | 1016.3 |
| 20260505023104 | 18 | 190 | 1.6 | 8.0 | 0.00 | 0.00 | 0.00 | 52 | 1016.2 |
| 20260505021558 | 18 | 176 | 0.0 | 8.0 | 0.00 | 0.00 | 0.00 | 51 | 1016.1 |
| 20260505020058 | 18 | 188 | 1.6 | 6.4 | 0.00 | 0.00 | 0.00 | 51 | 1016.0 |
| 20260505014603 | 18 | 165 | 0.0 | 3.2 | 0.00 | 0.00 | 0.00 | 52 | 1015.7 |
| 20260505013102 | 18 | 0 | 0.0 | 3.2 | 0.00 | 0.00 | 0.00 | 50 | 1015.6 |
| 20260505011559 | 18 | 0 | 0.0 | 1.6 | 0.00 | 0.00 | 0.00 | 48 | 1015.4 |
| 20260505004558 | 19 | 0 | 0.0 | 1.6 | 0.00 | 0.00 | 0.00 | 46 | 1015.3 |
| 20260505003058 | 20 | 170 | 0.0 | 3.2 | 0.00 | 0.00 | 0.00 | 44 | 1015.1 |
| 20260505001559 | 20 | 192 | 0.0 | 3.2 | 0.00 | 0.00 | 0.00 | 43 | 1015.1 |
| 20260505000109 | 21 | 173 | 1.6 | 6.4 | 0.00 | 0.00 | 0.00 | 42 | 1015.2 |
| 20260504234627 | 22 | 194 | 1.6 | 9.7 | 0.00 | 0.00 | 0.00 | 40 | 1014.8 |
| 20260504233104 | 22 | 140 | 3.2 | 11.3 | 0.00 | 0.00 | 0.00 | 39 | 1014.8 |
| 20260504231605 | 23 | 176 | 3.2 | 11.3 | 0.00 | 0.00 | 0.00 | 37 | 1014.6 |
| 20260504230059 | 23 | 230 | 3.2 | 9.7 | 0.00 | 0.00 | 0.00 | 36 | 1014.7 |
| 20260504224558 | 23 | 207 | 3.2 | 11.3 | 0.00 | 0.00 | 0.00 | 36 | 1014.5 |
| 20260504223100 | 24 | 144 | 1.6 | 14.5 | 0.00 | 0.00 | 0.00 | 35 | 1014.6 |
| 20260504221608 | 24 | 229 | 3.2 | 12.9 | 0.00 | 0.00 | 0.00 | 33 | 1014.6 |
| 20260504220059 | 24 | 211 | 1.6 | 17.7 | 0.00 | 0.00 | 0.00 | 35 | 1014.6 |
| 20260504214600 | 25 | 182 | 1.6 | 8.0 | 0.00 | 0.00 | 0.00 | 37 | 1014.4 |
| 20260504213100 | 25 | 192 | 1.6 | 9.7 | 0.00 | 0.00 | 0.00 | 34 | 1014.5 |
| 20260504211600 | 25 | 261 | 1.6 | 14.5 | 0.00 | 0.00 | 0.00 | 36 | 1014.5 |
| 20260504210110 | 25 | 192 | 1.6 | 19.3 | 0.00 | 0.00 | 0.00 | 37 | 1014.7 |
| 20260504204603 | 25 | 0 | 1.6 | 8.0 | 0.00 | 0.00 | 0.00 | 34 | 1014.9 |
| 20260504203104 | 25 | 126 | 3.2 | 14.5 | 0.00 | 0.00 | 0.00 | 35 | 1015.1 |
| 20260504201611 | 25 | 175 | 1.6 | 12.9 | 0.00 | 0.00 | 0.00 | 35 | 1015.2 |
| 20260504194610 | 25 | 111 | 1.6 | 11.3 | 0.00 | 0.00 | 0.00 | 33 | 1015.5 |
| 20260504193058 | 25 | 169 | 1.6 | 16.1 | 0.00 | 0.00 | 0.00 | 35 | 1015.7 |
| 20260504191600 | 25 | 0 | 1.6 | 11.3 | 0.00 | 0.00 | 0.00 | 33 | 1015.9 |
| 20260504190130 | 25 | 55 | 1.6 | 8.0 | 0.00 | 0.00 | 0.00 | 34 | 1016.0 |
| 20260504184600 | 25 | 205 | 1.6 | 9.7 | 0.00 | 0.00 | 0.00 | 35 | 1016.3 |